Year,Month,Day,Hour,Minute,Value (Times are PST for temperature in C)
2007,05,22,00,00,9.90
2007,05,22,00,01,9.90
2007,05,22,00,02,9.90
2007,05,22,00,03,9.90
2007,05,22,00,04,9.90
2007,05,22,00,05,9.90
2007,05,22,00,06,9.90
2007,05,22,00,07,9.90
2007,05,22,00,08,9.90
2007,05,22,00,09,9.90
2007,05,22,00,10,9.90
2007,05,22,00,11,9.90
2007,05,22,00,12,9.90
2007,05,22,00,13,9.90
2007,05,22,00,14,9.80
2007,05,22,00,15,9.80
2007,05,22,00,16,9.80
2007,05,22,00,17,9.80
2007,05,22,00,18,9.80
2007,05,22,00,19,9.80
2007,05,22,00,20,9.80
2007,05,22,00,21,9.80
2007,05,22,00,22,9.80
2007,05,22,00,23,9.80
2007,05,22,00,24,9.70
2007,05,22,00,25,9.70
2007,05,22,00,26,9.70
2007,05,22,00,27,9.70
2007,05,22,00,28,9.70
2007,05,22,00,29,9.70
2007,05,22,00,30,9.70
2007,05,22,00,31,9.70
2007,05,22,00,32,9.70
2007,05,22,00,33,9.70
2007,05,22,00,34,9.70
2007,05,22,00,35,9.70
2007,05,22,00,36,9.70
2007,05,22,00,37,9.70
2007,05,22,00,38,9.70
2007,05,22,00,39,9.60
2007,05,22,00,40,9.60
2007,05,22,00,41,9.60
2007,05,22,00,42,9.60
2007,05,22,00,43,9.60
2007,05,22,00,44,9.60
2007,05,22,00,45,9.60
2007,05,22,00,46,9.60
2007,05,22,00,47,9.60
2007,05,22,00,48,9.50
2007,05,22,00,49,9.50
2007,05,22,00,50,9.50
2007,05,22,00,51,9.60
2007,05,22,00,52,9.60
2007,05,22,00,53,9.60
2007,05,22,00,54,9.60
2007,05,22,00,55,9.60
2007,05,22,00,56,9.60
2007,05,22,00,57,9.60
2007,05,22,00,58,9.60
2007,05,22,00,59,9.50
2007,05,22,01,00,9.50
2007,05,22,01,01,9.50
2007,05,22,01,02,9.50
2007,05,22,01,03,9.50
2007,05,22,01,04,9.50
2007,05,22,01,05,9.50
2007,05,22,01,06,9.40
2007,05,22,01,07,9.40
2007,05,22,01,08,9.40
2007,05,22,01,09,9.40
2007,05,22,01,10,9.40
2007,05,22,01,11,9.40
2007,05,22,01,12,9.40
2007,05,22,01,13,9.50
2007,05,22,01,14,9.50
2007,05,22,01,15,9.50
2007,05,22,01,16,9.50
2007,05,22,01,17,9.50
2007,05,22,01,18,9.50
2007,05,22,01,19,9.50
2007,05,22,01,20,9.50
2007,05,22,01,21,9.50
2007,05,22,01,22,9.50
2007,05,22,01,23,9.50
2007,05,22,01,24,9.40
2007,05,22,01,25,9.40
2007,05,22,01,26,9.40
2007,05,22,01,27,9.40
2007,05,22,01,28,9.40
2007,05,22,01,29,9.40
2007,05,22,01,30,9.40
2007,05,22,01,31,9.40
2007,05,22,01,32,9.40
2007,05,22,01,33,9.40
2007,05,22,01,34,9.40
2007,05,22,01,35,9.40
2007,05,22,01,36,9.30
2007,05,22,01,37,9.30
2007,05,22,01,38,9.30
2007,05,22,01,39,9.30
2007,05,22,01,40,9.30
2007,05,22,01,41,9.30
2007,05,22,01,42,9.30
2007,05,22,01,43,9.30
2007,05,22,01,44,9.30
2007,05,22,01,45,9.30
2007,05,22,01,46,9.30
2007,05,22,01,47,9.30
2007,05,22,01,48,9.30
2007,05,22,01,49,9.20
2007,05,22,01,50,9.20
2007,05,22,01,51,9.20
2007,05,22,01,52,9.20
2007,05,22,01,53,9.20
2007,05,22,01,54,9.20
2007,05,22,01,55,9.20
2007,05,22,01,56,9.20
2007,05,22,01,57,9.20
2007,05,22,01,58,9.20
2007,05,22,01,59,9.20
2007,05,22,02,00,9.20
2007,05,22,02,01,9.20
2007,05,22,02,02,9.20
2007,05,22,02,03,9.20
2007,05,22,02,04,9.20
2007,05,22,02,05,9.20
2007,05,22,02,06,9.20
2007,05,22,02,07,9.20
2007,05,22,02,08,9.20
2007,05,22,02,09,9.10
2007,05,22,02,10,9.10
2007,05,22,02,11,9.10
2007,05,22,02,12,9.10
2007,05,22,02,13,9.00
2007,05,22,02,14,9.00
2007,05,22,02,15,9.00
2007,05,22,02,16,8.90
2007,05,22,02,17,8.90
2007,05,22,02,18,8.90
2007,05,22,02,19,8.80
2007,05,22,02,20,8.80
2007,05,22,02,21,8.70
2007,05,22,02,22,8.70
2007,05,22,02,23,8.70
2007,05,22,02,24,8.70
2007,05,22,02,25,8.60
2007,05,22,02,26,8.60
2007,05,22,02,27,8.50
2007,05,22,02,28,8.50
2007,05,22,02,29,8.40
2007,05,22,02,30,8.40
2007,05,22,02,31,8.30
2007,05,22,02,32,8.30
2007,05,22,02,33,8.30
2007,05,22,02,34,8.30
2007,05,22,02,35,8.20
2007,05,22,02,36,8.20
2007,05,22,02,37,8.20
2007,05,22,02,38,8.20
2007,05,22,02,39,8.20
2007,05,22,02,40,8.20
2007,05,22,02,41,8.20
2007,05,22,02,42,8.20
2007,05,22,02,43,8.20
2007,05,22,02,44,8.20
2007,05,22,02,45,8.30
2007,05,22,02,46,8.30
2007,05,22,02,47,8.30
2007,05,22,02,48,8.30
2007,05,22,02,49,8.40
2007,05,22,02,50,8.40
2007,05,22,02,51,8.40
2007,05,22,02,52,8.40
2007,05,22,02,53,8.30
2007,05,22,02,54,8.30
2007,05,22,02,55,8.30
2007,05,22,02,56,8.30
2007,05,22,02,57,8.30
2007,05,22,02,58,8.30
2007,05,22,02,59,8.30
2007,05,22,03,00,8.30
2007,05,22,03,01,8.30
2007,05,22,03,02,8.20
2007,05,22,03,03,8.20
2007,05,22,03,04,8.20
2007,05,22,03,05,8.10
2007,05,22,03,06,8.10
2007,05,22,03,07,8.10
2007,05,22,03,08,8.00
2007,05,22,03,09,8.00
2007,05,22,03,10,8.10
2007,05,22,03,11,8.10
2007,05,22,03,12,8.10
2007,05,22,03,13,8.10
2007,05,22,03,14,8.10
2007,05,22,03,15,8.10
2007,05,22,03,16,8.10
2007,05,22,03,17,8.10
2007,05,22,03,18,8.00
2007,05,22,03,19,8.00
2007,05,22,03,20,8.00
2007,05,22,03,21,7.90
2007,05,22,03,22,7.90
2007,05,22,03,23,7.90
2007,05,22,03,24,7.80
2007,05,22,03,25,7.80
2007,05,22,03,26,7.80
2007,05,22,03,27,7.70
2007,05,22,03,28,7.70
2007,05,22,03,29,7.60
2007,05,22,03,30,7.60
2007,05,22,03,31,7.60
2007,05,22,03,32,7.60
2007,05,22,03,33,7.60
2007,05,22,03,34,7.60
2007,05,22,03,35,7.60
2007,05,22,03,36,7.60
2007,05,22,03,37,7.50
2007,05,22,03,38,7.50
2007,05,22,03,39,7.50
2007,05,22,03,40,7.50
2007,05,22,03,41,7.50
2007,05,22,03,42,7.50
2007,05,22,03,43,7.50
2007,05,22,03,44,7.50
2007,05,22,03,45,7.40
2007,05,22,03,46,7.40
2007,05,22,03,47,7.40
2007,05,22,03,48,7.30
2007,05,22,03,49,7.30
2007,05,22,03,50,7.30
2007,05,22,03,51,7.30
2007,05,22,03,52,7.30
2007,05,22,03,53,7.30
2007,05,22,03,54,7.30
2007,05,22,03,55,7.30
2007,05,22,03,56,7.30
2007,05,22,03,57,7.30
2007,05,22,03,58,7.30
2007,05,22,03,59,7.30
2007,05,22,04,00,7.30
2007,05,22,04,01,7.40
2007,05,22,04,02,7.40
2007,05,22,04,03,7.40
2007,05,22,04,04,7.50
2007,05,22,04,05,7.50
2007,05,22,04,06,7.60
2007,05,22,04,07,7.60
2007,05,22,04,08,7.60
2007,05,22,04,09,7.60
2007,05,22,04,10,7.70
2007,05,22,04,11,7.70
2007,05,22,04,12,7.60
2007,05,22,04,13,7.60
2007,05,22,04,14,7.50
2007,05,22,04,15,7.50
2007,05,22,04,16,7.40
2007,05,22,04,17,7.30
2007,05,22,04,18,7.30
2007,05,22,04,19,7.30
2007,05,22,04,20,7.30
2007,05,22,04,21,7.30
2007,05,22,04,22,7.20
2007,05,22,04,23,7.20
2007,05,22,04,24,7.20
2007,05,22,04,25,7.20
2007,05,22,04,26,7.10
2007,05,22,04,27,7.10
2007,05,22,04,28,7.00
2007,05,22,04,29,7.00
2007,05,22,04,30,7.00
2007,05,22,04,31,7.00
2007,05,22,04,32,6.90
2007,05,22,04,33,6.90
2007,05,22,04,34,6.90
2007,05,22,04,35,6.80
2007,05,22,04,36,6.80
2007,05,22,04,37,6.80
2007,05,22,04,38,6.80
2007,05,22,04,39,6.70
2007,05,22,04,40,6.70
2007,05,22,04,41,6.70
2007,05,22,04,42,6.60
2007,05,22,04,43,6.60
2007,05,22,04,44,6.60
2007,05,22,04,45,6.60
2007,05,22,04,46,6.60
2007,05,22,04,47,6.50
2007,05,22,04,48,6.40
2007,05,22,04,49,6.40
2007,05,22,04,50,6.40
2007,05,22,04,51,6.40
2007,05,22,04,52,6.40
2007,05,22,04,53,6.40
2007,05,22,04,54,6.40
2007,05,22,04,55,6.40
2007,05,22,04,56,6.30
2007,05,22,04,57,6.30
2007,05,22,04,58,6.30
2007,05,22,04,59,6.30
2007,05,22,05,00,6.30
2007,05,22,05,01,6.30
2007,05,22,05,02,6.30
2007,05,22,05,03,6.30
2007,05,22,05,04,6.40
2007,05,22,05,05,6.40
2007,05,22,05,06,6.40
2007,05,22,05,07,6.40
2007,05,22,05,08,6.40
2007,05,22,05,09,6.40
2007,05,22,05,10,6.40
2007,05,22,05,11,6.40
2007,05,22,05,12,6.40
2007,05,22,05,13,6.50
2007,05,22,05,14,6.60
2007,05,22,05,15,6.60
2007,05,22,05,16,6.60
2007,05,22,05,17,6.60
2007,05,22,05,18,6.60
2007,05,22,05,19,6.60
2007,05,22,05,20,6.70
2007,05,22,05,21,6.70
2007,05,22,05,22,6.70
2007,05,22,05,23,6.70
2007,05,22,05,24,6.70
2007,05,22,05,25,6.70
2007,05,22,05,26,6.70
2007,05,22,05,27,6.60
2007,05,22,05,28,6.60
2007,05,22,05,29,6.60
2007,05,22,05,30,6.60
2007,05,22,05,31,6.60
2007,05,22,05,32,6.60
2007,05,22,05,33,6.60
2007,05,22,05,34,6.60
2007,05,22,05,35,6.60
2007,05,22,05,36,6.60
2007,05,22,05,37,6.60
2007,05,22,05,38,6.60
2007,05,22,05,39,6.60
2007,05,22,05,40,6.60
2007,05,22,05,41,6.60
2007,05,22,05,42,6.60
2007,05,22,05,43,6.60
2007,05,22,05,44,6.60
2007,05,22,05,45,6.40
2007,05,22,05,46,6.40
2007,05,22,05,47,6.40
2007,05,22,05,48,6.40
2007,05,22,05,49,6.40
2007,05,22,05,50,6.40
2007,05,22,05,51,6.40
2007,05,22,05,52,6.40
2007,05,22,05,53,6.40
2007,05,22,05,54,6.40
2007,05,22,05,55,6.40
2007,05,22,05,56,6.40
2007,05,22,05,57,6.40
2007,05,22,05,58,6.50
2007,05,22,05,59,6.60
2007,05,22,06,00,6.60
2007,05,22,06,01,6.60
2007,05,22,06,02,6.70
2007,05,22,06,03,6.80
2007,05,22,06,04,6.80
2007,05,22,06,05,6.90
2007,05,22,06,06,6.90
2007,05,22,06,07,7.00
2007,05,22,06,08,7.10
2007,05,22,06,09,7.10
2007,05,22,06,10,7.20
2007,05,22,06,11,7.30
2007,05,22,06,12,7.30
2007,05,22,06,13,7.30
2007,05,22,06,14,7.40
2007,05,22,06,15,7.40
2007,05,22,06,16,7.50
2007,05,22,06,17,7.60
2007,05,22,06,18,7.70
2007,05,22,06,19,7.70
2007,05,22,06,20,7.80
2007,05,22,06,21,7.80
2007,05,22,06,22,7.80
2007,05,22,06,23,7.90
2007,05,22,06,24,7.90
2007,05,22,06,25,8.00
2007,05,22,06,26,8.00
2007,05,22,06,27,8.10
2007,05,22,06,28,8.20
2007,05,22,06,29,8.20
2007,05,22,06,30,8.30
2007,05,22,06,31,8.40
2007,05,22,06,32,8.50
2007,05,22,06,33,8.50
2007,05,22,06,34,8.50
2007,05,22,06,35,8.50
2007,05,22,06,36,8.50
2007,05,22,06,37,8.60
2007,05,22,06,38,8.60
2007,05,22,06,39,8.70
2007,05,22,06,40,8.70
2007,05,22,06,41,8.80
2007,05,22,06,42,8.80
2007,05,22,06,43,8.90
2007,05,22,06,44,8.90
2007,05,22,06,45,9.00
2007,05,22,06,46,9.00
2007,05,22,06,47,9.10
2007,05,22,06,48,9.10
2007,05,22,06,49,9.10
2007,05,22,06,50,9.20
2007,05,22,06,51,9.20
2007,05,22,06,52,9.30
2007,05,22,06,53,9.30
2007,05,22,06,54,9.40
2007,05,22,06,55,9.50
2007,05,22,06,56,9.50
2007,05,22,06,57,9.50
2007,05,22,06,58,9.50
2007,05,22,06,59,9.50
2007,05,22,07,00,9.50
2007,05,22,07,01,9.50
2007,05,22,07,02,9.50
2007,05,22,07,03,9.50
2007,05,22,07,04,9.50
2007,05,22,07,05,9.50
2007,05,22,07,06,9.50
2007,05,22,07,07,9.60
2007,05,22,07,08,9.60
2007,05,22,07,09,9.70
2007,05,22,07,10,9.70
2007,05,22,07,11,9.70
2007,05,22,07,12,9.80
2007,05,22,07,13,9.80
2007,05,22,07,14,9.90
2007,05,22,07,15,9.90
2007,05,22,07,16,9.90
2007,05,22,07,17,10.00
2007,05,22,07,18,10.10
2007,05,22,07,19,10.10
2007,05,22,07,20,10.10
2007,05,22,07,21,10.20
2007,05,22,07,22,10.20
2007,05,22,07,23,10.30
2007,05,22,07,24,10.30
2007,05,22,07,25,10.30
2007,05,22,07,26,10.40
2007,05,22,07,27,10.40
2007,05,22,07,28,10.40
2007,05,22,07,29,10.40
2007,05,22,07,30,10.40
2007,05,22,07,31,10.50
2007,05,22,07,32,10.60
2007,05,22,07,33,10.60
2007,05,22,07,34,10.60
2007,05,22,07,35,10.70
2007,05,22,07,36,10.70
2007,05,22,07,37,10.70
2007,05,22,07,38,10.70
2007,05,22,07,39,10.70
2007,05,22,07,40,10.70
2007,05,22,07,41,10.80
2007,05,22,07,42,10.80
2007,05,22,07,43,10.80
2007,05,22,07,44,10.80
2007,05,22,07,45,10.80
2007,05,22,07,46,10.80
2007,05,22,07,47,10.80
2007,05,22,07,48,10.80
2007,05,22,07,49,10.80
2007,05,22,07,50,10.80
2007,05,22,07,51,10.90
2007,05,22,07,52,10.90
2007,05,22,07,53,10.90
2007,05,22,07,54,10.90
2007,05,22,07,55,10.90
2007,05,22,07,56,10.90
2007,05,22,07,57,10.90
2007,05,22,07,58,11.00
2007,05,22,07,59,11.10
2007,05,22,08,00,11.10
2007,05,22,08,01,11.10
2007,05,22,08,02,11.10
2007,05,22,08,03,11.10
2007,05,22,08,04,11.10
2007,05,22,08,05,11.20
2007,05,22,08,06,11.20
2007,05,22,08,07,11.20
2007,05,22,08,08,11.20
2007,05,22,08,09,11.20
2007,05,22,08,10,11.20
2007,05,22,08,11,11.30
2007,05,22,08,12,11.30
2007,05,22,08,13,11.30
2007,05,22,08,14,11.30
2007,05,22,08,15,11.30
2007,05,22,08,16,11.40
2007,05,22,08,17,11.40
2007,05,22,08,18,11.40
2007,05,22,08,19,11.40
2007,05,22,08,20,11.40
2007,05,22,08,21,11.40
2007,05,22,08,22,11.50
2007,05,22,08,23,11.60
2007,05,22,08,24,11.60
2007,05,22,08,25,11.60
2007,05,22,08,26,11.60
2007,05,22,08,27,11.60
2007,05,22,08,28,11.70
2007,05,22,08,29,11.70
2007,05,22,08,30,11.70
2007,05,22,08,31,11.70
2007,05,22,08,32,11.80
2007,05,22,08,33,11.80
2007,05,22,08,34,11.80
2007,05,22,08,35,11.80
2007,05,22,08,36,11.80
2007,05,22,08,37,11.80
2007,05,22,08,38,11.80
2007,05,22,08,39,11.80
2007,05,22,08,40,11.80
2007,05,22,08,41,11.80
2007,05,22,08,42,11.80
2007,05,22,08,43,11.90
2007,05,22,08,44,11.90
2007,05,22,08,45,11.90
2007,05,22,08,46,11.90
2007,05,22,08,47,11.80
2007,05,22,08,48,11.80
2007,05,22,08,49,11.80
2007,05,22,08,50,11.80
2007,05,22,08,51,11.80
2007,05,22,08,52,11.80
2007,05,22,08,53,11.80
2007,05,22,08,54,11.80
2007,05,22,08,55,11.90
2007,05,22,08,56,11.90
2007,05,22,08,57,11.90
2007,05,22,08,58,11.90
2007,05,22,08,59,11.90
2007,05,22,09,00,12.00
2007,05,22,09,01,12.00
2007,05,22,09,02,12.00
2007,05,22,09,03,12.10
2007,05,22,09,04,12.10
2007,05,22,09,05,12.20
2007,05,22,09,06,12.30
2007,05,22,09,07,12.30
2007,05,22,09,08,12.30
2007,05,22,09,09,12.40
2007,05,22,09,10,12.50
2007,05,22,09,11,12.60
2007,05,22,09,12,12.60
2007,05,22,09,13,12.60
2007,05,22,09,14,12.60
2007,05,22,09,15,12.60
2007,05,22,09,16,12.60
2007,05,22,09,17,12.60
2007,05,22,09,18,12.70
2007,05,22,09,19,12.70
2007,05,22,09,20,12.70
2007,05,22,09,21,12.70
2007,05,22,09,22,12.70
2007,05,22,09,23,12.70
2007,05,22,09,24,12.60
2007,05,22,09,25,12.60
2007,05,22,09,26,12.60
2007,05,22,09,27,12.60
2007,05,22,09,28,12.60
2007,05,22,09,29,12.60
2007,05,22,09,30,12.60
2007,05,22,09,31,12.60
2007,05,22,09,32,12.60
2007,05,22,09,33,12.70
2007,05,22,09,34,12.80
2007,05,22,09,35,12.80
2007,05,22,09,36,12.80
2007,05,22,09,37,12.80
2007,05,22,09,38,12.90
2007,05,22,09,39,12.90
2007,05,22,09,40,12.90
2007,05,22,09,41,12.90
2007,05,22,09,42,12.90
2007,05,22,09,43,13.00
2007,05,22,09,44,13.00
2007,05,22,09,45,13.10
2007,05,22,09,46,13.10
2007,05,22,09,47,13.10
2007,05,22,09,48,13.20
2007,05,22,09,49,13.30
2007,05,22,09,50,13.30
2007,05,22,09,51,13.30
2007,05,22,09,52,13.30
2007,05,22,09,53,13.30
2007,05,22,09,54,13.40
2007,05,22,09,55,13.50
2007,05,22,09,56,13.60
2007,05,22,09,57,13.60
2007,05,22,09,58,13.70
2007,05,22,09,59,13.70
2007,05,22,10,00,13.90
2007,05,22,10,01,13.90
2007,05,22,10,02,13.90
2007,05,22,10,03,13.90
2007,05,22,10,04,13.90
2007,05,22,10,05,13.90
2007,05,22,10,06,13.80
2007,05,22,10,07,13.80
2007,05,22,10,08,13.80
2007,05,22,10,09,13.90
2007,05,22,10,10,14.00
2007,05,22,10,11,14.00
2007,05,22,10,12,14.10
2007,05,22,10,13,14.20
2007,05,22,10,14,14.30
2007,05,22,10,15,14.40
2007,05,22,10,16,14.40
2007,05,22,10,17,14.50
2007,05,22,10,18,14.50
2007,05,22,10,19,14.50
2007,05,22,10,20,14.60
2007,05,22,10,21,14.60
2007,05,22,10,22,14.80
2007,05,22,10,23,14.80
2007,05,22,10,24,14.80
2007,05,22,10,25,14.90
2007,05,22,10,26,14.90
2007,05,22,10,27,15.00
2007,05,22,10,28,15.00
2007,05,22,10,29,14.90
2007,05,22,10,30,14.90
2007,05,22,10,31,14.80
2007,05,22,10,32,14.80
2007,05,22,10,33,14.70
2007,05,22,10,34,14.60
2007,05,22,10,35,14.60
2007,05,22,10,36,14.60
2007,05,22,10,37,14.60
2007,05,22,10,38,14.60
2007,05,22,10,39,14.50
2007,05,22,10,40,14.50
2007,05,22,10,41,14.50
2007,05,22,10,42,14.60
2007,05,22,10,43,14.70
2007,05,22,10,44,14.60
2007,05,22,10,45,14.60
2007,05,22,10,46,14.50
2007,05,22,10,47,14.50
2007,05,22,10,48,14.60
2007,05,22,10,49,14.60
2007,05,22,10,50,14.80
2007,05,22,10,51,14.80
2007,05,22,10,52,14.90
2007,05,22,10,53,15.00
2007,05,22,10,54,15.00
2007,05,22,10,55,15.00
2007,05,22,10,56,15.00
2007,05,22,10,57,15.20
2007,05,22,10,58,15.20
2007,05,22,10,59,15.10
2007,05,22,11,00,15.10
2007,05,22,11,01,15.00
2007,05,22,11,02,15.10
2007,05,22,11,03,15.10
2007,05,22,11,04,15.10
2007,05,22,11,05,15.20
2007,05,22,11,06,15.20
2007,05,22,11,07,15.30
2007,05,22,11,08,15.40
2007,05,22,11,09,15.40
2007,05,22,11,10,15.70
2007,05,22,11,11,15.80
2007,05,22,11,12,15.80
2007,05,22,11,13,15.80
2007,05,22,11,14,15.90
2007,05,22,11,15,16.00
2007,05,22,11,16,16.10
2007,05,22,11,17,16.20
2007,05,22,11,18,16.30
2007,05,22,11,19,16.30
2007,05,22,11,20,16.30
2007,05,22,11,21,16.20
2007,05,22,11,22,16.10
2007,05,22,11,23,15.90
2007,05,22,11,24,15.90
2007,05,22,11,25,15.90
2007,05,22,11,26,15.90
2007,05,22,11,27,15.90
2007,05,22,11,28,16.00
2007,05,22,11,29,16.10
2007,05,22,11,30,16.10
2007,05,22,11,31,16.20
2007,05,22,11,32,16.30
2007,05,22,11,33,16.30
2007,05,22,11,34,16.30
2007,05,22,11,35,16.30
2007,05,22,11,36,16.40
2007,05,22,11,37,16.30
2007,05,22,11,38,16.30
2007,05,22,11,39,16.30
2007,05,22,11,40,16.30
2007,05,22,11,41,16.30
2007,05,22,11,42,16.40
2007,05,22,11,43,16.30
2007,05,22,11,44,16.20
2007,05,22,11,45,16.10
2007,05,22,11,46,16.10
2007,05,22,11,47,16.20
2007,05,22,11,48,16.30
2007,05,22,11,49,16.30
2007,05,22,11,50,16.40
2007,05,22,11,51,16.40
2007,05,22,11,52,16.40
2007,05,22,11,53,16.40
2007,05,22,11,54,16.40
2007,05,22,11,55,16.40
2007,05,22,11,56,16.40
2007,05,22,11,57,16.40
2007,05,22,11,58,16.40
2007,05,22,11,59,16.60
2007,05,22,12,00,16.60
2007,05,22,12,01,16.60
2007,05,22,12,02,16.50
2007,05,22,12,03,16.40
2007,05,22,12,04,16.40
2007,05,22,12,05,16.40
2007,05,22,12,06,16.40
2007,05,22,12,07,16.60
2007,05,22,12,08,16.70
2007,05,22,12,09,16.70
2007,05,22,12,10,16.40
2007,05,22,12,11,16.20
2007,05,22,12,12,16.20
2007,05,22,12,13,16.10
2007,05,22,12,14,16.10
2007,05,22,12,15,16.10
2007,05,22,12,16,16.20
2007,05,22,12,17,16.20
2007,05,22,12,18,16.10
2007,05,22,12,19,16.10
2007,05,22,12,20,16.10
2007,05,22,12,21,16.10
2007,05,22,12,22,16.10
2007,05,22,12,23,15.90
2007,05,22,12,24,15.90
2007,05,22,12,25,15.80
2007,05,22,12,26,15.70
2007,05,22,12,27,15.70
2007,05,22,12,28,15.70
2007,05,22,12,29,15.60
2007,05,22,12,30,15.50
2007,05,22,12,31,15.50
2007,05,22,12,32,15.40
2007,05,22,12,33,15.40
2007,05,22,12,34,15.40
2007,05,22,12,35,15.30
2007,05,22,12,36,15.40
2007,05,22,12,37,15.30
2007,05,22,12,38,15.10
2007,05,22,12,39,15.20
2007,05,22,12,40,15.30
2007,05,22,12,41,15.50
2007,05,22,12,42,15.50
2007,05,22,12,43,15.70
2007,05,22,12,44,15.90
2007,05,22,12,45,16.00
2007,05,22,12,46,16.10
2007,05,22,12,47,16.20
2007,05,22,12,48,16.20
2007,05,22,12,49,16.20
2007,05,22,12,50,16.20
2007,05,22,12,51,16.20
2007,05,22,12,52,16.20
2007,05,22,12,53,16.20
2007,05,22,12,54,15.90
2007,05,22,12,55,16.00
2007,05,22,12,56,16.10
2007,05,22,12,57,16.10
2007,05,22,12,58,15.90
2007,05,22,12,59,15.80
2007,05,22,13,00,15.90
2007,05,22,13,01,16.00
2007,05,22,13,02,15.80
2007,05,22,13,03,15.80
2007,05,22,13,04,15.80
2007,05,22,13,05,15.90
2007,05,22,13,06,15.90
2007,05,22,13,07,15.90
2007,05,22,13,08,15.90
2007,05,22,13,09,15.80
2007,05,22,13,10,15.80
2007,05,22,13,11,15.70
2007,05,22,13,12,15.60
2007,05,22,13,13,15.40
2007,05,22,13,14,15.30
2007,05,22,13,15,15.30
2007,05,22,13,16,15.30
2007,05,22,13,17,15.30
2007,05,22,13,18,15.40
2007,05,22,13,19,15.40
2007,05,22,13,20,15.40
2007,05,22,13,21,15.30
2007,05,22,13,22,15.30
2007,05,22,13,23,15.30
2007,05,22,13,24,15.30
2007,05,22,13,25,15.20
2007,05,22,13,26,15.20
2007,05,22,13,27,15.20
2007,05,22,13,28,15.20
2007,05,22,13,29,15.40
2007,05,22,13,30,15.60
2007,05,22,13,31,15.50
2007,05,22,13,32,15.20
2007,05,22,13,33,15.10
2007,05,22,13,34,15.20
2007,05,22,13,35,15.20
2007,05,22,13,36,15.10
2007,05,22,13,37,14.90
2007,05,22,13,38,14.80
2007,05,22,13,39,15.00
2007,05,22,13,40,15.10
2007,05,22,13,41,15.10
2007,05,22,13,42,15.20
2007,05,22,13,43,15.20
2007,05,22,13,44,15.00
2007,05,22,13,45,14.90
2007,05,22,13,46,14.80
2007,05,22,13,47,14.70
2007,05,22,13,48,14.60
2007,05,22,13,49,14.50
2007,05,22,13,50,14.50
2007,05,22,13,51,14.70
2007,05,22,13,52,14.60
2007,05,22,13,53,14.60
2007,05,22,13,54,14.60
2007,05,22,13,55,14.60
2007,05,22,13,56,14.70
2007,05,22,13,57,14.80
2007,05,22,13,58,14.90
2007,05,22,13,59,15.00
2007,05,22,14,00,15.10
2007,05,22,14,01,15.30
2007,05,22,14,02,15.30
2007,05,22,14,03,15.20
2007,05,22,14,04,15.20
2007,05,22,14,05,15.00
2007,05,22,14,06,15.00
2007,05,22,14,07,15.00
2007,05,22,14,08,15.00
2007,05,22,14,09,14.90
2007,05,22,14,10,15.00
2007,05,22,14,11,15.00
2007,05,22,14,12,14.90
2007,05,22,14,13,14.80
2007,05,22,14,14,14.80
2007,05,22,14,15,14.90
2007,05,22,14,16,14.80
2007,05,22,14,17,14.80
2007,05,22,14,18,14.60
2007,05,22,14,19,14.50
2007,05,22,14,20,14.60
2007,05,22,14,21,14.70
2007,05,22,14,22,14.90
2007,05,22,14,23,15.00
2007,05,22,14,24,15.00
2007,05,22,14,25,15.10
2007,05,22,14,26,15.20
2007,05,22,14,27,15.10
2007,05,22,14,28,15.00
2007,05,22,14,29,15.00
2007,05,22,14,30,14.90
2007,05,22,14,31,14.70
2007,05,22,14,32,14.70
2007,05,22,14,33,14.80
2007,05,22,14,34,14.90
2007,05,22,14,35,15.10
2007,05,22,14,36,15.40
2007,05,22,14,37,15.40
2007,05,22,14,38,15.30
2007,05,22,14,39,15.10
2007,05,22,14,40,15.10
2007,05,22,14,41,15.00
2007,05,22,14,42,15.00
2007,05,22,14,43,15.00
2007,05,22,14,44,15.00
2007,05,22,14,45,14.90
2007,05,22,14,46,14.80
2007,05,22,14,47,14.80
2007,05,22,14,48,14.60
2007,05,22,14,49,14.60
2007,05,22,14,50,14.80
2007,05,22,14,51,14.70
2007,05,22,14,52,14.60
2007,05,22,14,53,14.60
2007,05,22,14,54,14.60
2007,05,22,14,55,14.50
2007,05,22,14,56,14.50
2007,05,22,14,57,14.40
2007,05,22,14,58,14.50
2007,05,22,14,59,14.70
2007,05,22,15,00,14.80
2007,05,22,15,01,14.80
2007,05,22,15,02,14.70
2007,05,22,15,03,14.70
2007,05,22,15,04,14.80
2007,05,22,15,05,14.70
2007,05,22,15,06,14.70
2007,05,22,15,07,14.60
2007,05,22,15,08,14.50
2007,05,22,15,09,14.50
2007,05,22,15,10,14.60
2007,05,22,15,11,14.60
2007,05,22,15,12,14.50
2007,05,22,15,13,14.40
2007,05,22,15,14,14.40
2007,05,22,15,15,14.50
2007,05,22,15,16,14.50
2007,05,22,15,17,14.50
2007,05,22,15,18,14.30
2007,05,22,15,19,14.20
2007,05,22,15,20,14.20
2007,05,22,15,21,14.10
2007,05,22,15,22,14.10
2007,05,22,15,23,14.10
2007,05,22,15,24,14.20
2007,05,22,15,25,14.20
2007,05,22,15,26,14.10
2007,05,22,15,27,14.10
2007,05,22,15,28,14.30
2007,05,22,15,29,14.30
2007,05,22,15,30,14.30
2007,05,22,15,31,14.30
2007,05,22,15,32,14.30
2007,05,22,15,33,14.20
2007,05,22,15,34,14.10
2007,05,22,15,35,14.10
2007,05,22,15,36,14.20
2007,05,22,15,37,14.20
2007,05,22,15,38,14.20
2007,05,22,15,39,14.30
2007,05,22,15,40,14.30
2007,05,22,15,41,14.20
2007,05,22,15,42,14.30
2007,05,22,15,43,14.30
2007,05,22,15,44,14.40
2007,05,22,15,45,14.60
2007,05,22,15,46,14.50
2007,05,22,15,47,14.40
2007,05,22,15,48,14.40
2007,05,22,15,49,14.40
2007,05,22,15,50,14.40
2007,05,22,15,51,14.20
2007,05,22,15,52,14.30
2007,05,22,15,53,14.60
2007,05,22,15,54,14.80
2007,05,22,15,55,14.90
2007,05,22,15,56,14.80
2007,05,22,15,57,14.70
2007,05,22,15,58,14.60
2007,05,22,15,59,14.50
2007,05,22,16,00,14.50
2007,05,22,16,01,14.50
2007,05,22,16,02,14.60
2007,05,22,16,03,14.70
2007,05,22,16,04,14.60
2007,05,22,16,05,14.60
2007,05,22,16,06,14.40
2007,05,22,16,07,14.50
2007,05,22,16,08,14.60
2007,05,22,16,09,14.70
2007,05,22,16,10,14.80
2007,05,22,16,11,14.80
2007,05,22,16,12,14.70
2007,05,22,16,13,14.70
2007,05,22,16,14,14.60
2007,05,22,16,15,14.30
2007,05,22,16,16,14.50
2007,05,22,16,17,14.70
2007,05,22,16,18,14.80
2007,05,22,16,19,14.80
2007,05,22,16,20,14.60
2007,05,22,16,21,14.50
2007,05,22,16,22,14.50
2007,05,22,16,23,14.60
2007,05,22,16,24,14.60
2007,05,22,16,25,14.70
2007,05,22,16,26,14.80
2007,05,22,16,27,14.90
2007,05,22,16,28,14.90
2007,05,22,16,29,14.80
2007,05,22,16,30,14.80
2007,05,22,16,31,14.90
2007,05,22,16,32,15.00
2007,05,22,16,33,15.00
2007,05,22,16,34,15.00
2007,05,22,16,35,14.90
2007,05,22,16,36,14.80
2007,05,22,16,37,14.90
2007,05,22,16,38,14.90
2007,05,22,16,39,14.80
2007,05,22,16,40,14.80
2007,05,22,16,41,14.90
2007,05,22,16,42,15.00
2007,05,22,16,43,15.20
2007,05,22,16,44,15.20
2007,05,22,16,45,15.10
2007,05,22,16,46,15.00
2007,05,22,16,47,15.00
2007,05,22,16,48,15.10
2007,05,22,16,49,15.20
2007,05,22,16,50,15.20
2007,05,22,16,51,15.30
2007,05,22,16,52,15.20
2007,05,22,16,53,15.10
2007,05,22,16,54,15.00
2007,05,22,16,55,14.80
2007,05,22,16,56,14.80
2007,05,22,16,57,14.80
2007,05,22,16,58,14.80
2007,05,22,16,59,14.90
2007,05,22,17,00,15.00
2007,05,22,17,01,14.90
2007,05,22,17,02,14.90
2007,05,22,17,03,14.80
2007,05,22,17,04,14.80
2007,05,22,17,05,14.90
2007,05,22,17,06,14.90
2007,05,22,17,07,14.90
2007,05,22,17,08,14.90
2007,05,22,17,09,14.90
2007,05,22,17,10,14.80
2007,05,22,17,11,14.90
2007,05,22,17,12,15.00
2007,05,22,17,13,15.00
2007,05,22,17,14,15.10
2007,05,22,17,15,15.10
2007,05,22,17,16,15.10
2007,05,22,17,17,15.00
2007,05,22,17,18,15.00
2007,05,22,17,19,15.00
2007,05,22,17,20,15.00
2007,05,22,17,21,15.10
2007,05,22,17,22,15.20
2007,05,22,17,23,15.20
2007,05,22,17,24,15.20
2007,05,22,17,25,15.20
2007,05,22,17,26,15.20
2007,05,22,17,27,15.40
2007,05,22,17,28,15.50
2007,05,22,17,29,15.50
2007,05,22,17,30,15.60
2007,05,22,17,31,15.80
2007,05,22,17,32,15.90
2007,05,22,17,33,15.90
2007,05,22,17,34,15.80
2007,05,22,17,35,15.80
2007,05,22,17,36,15.80
2007,05,22,17,37,15.80
2007,05,22,17,38,15.80